Time,TemperatureF,DewpointF,PressureIn,WindDirection,WindDirectionDegrees,WindSpeedMPH,WindSpeedGustMPH,Humidity,HourlyPrecipIn,Conditions,Clouds,dailyrainin,SoftwareType,DateUTC
2013-09-29 00:03:00,46.9,26.2,25.25,North,-999,0.0,3.6,44,0.00,,,-99.99,FreeWX 2.04,2013-09-29 06:03:00,
2013-09-29 00:08:00,47.7,25.2,25.25,ESE,113,1.0,4.5,41,0.00,,,-99.99,FreeWX 2.04,2013-09-29 06:08:00,
2013-09-29 00:13:00,48.4,25.2,25.25,ESE,112,2.0,4.5,40,0.00,,,-99.99,FreeWX 2.04,2013-09-29 06:13:00,
2013-09-29 00:18:00,48.0,24.8,25.25,ESE,112,1.0,3.6,40,0.00,,,-99.99,FreeWX 2.04,2013-09-29 06:18:00,
2013-09-29 00:23:00,47.8,25.3,25.25,North,-999,0.0,3.1,41,0.00,,,-99.99,FreeWX 2.04,2013-09-29 06:23:00,
2013-09-29 00:28:00,47.5,25.5,25.25,North,-999,0.0,4.0,42,0.00,,,-99.99,FreeWX 2.04,2013-09-29 06:28:00,
2013-09-29 00:33:00,46.8,26.1,25.25,ESE,112,2.0,4.5,44,0.00,,,-99.99,FreeWX 2.04,2013-09-29 06:33:00,
2013-09-29 00:38:00,46.0,27.0,25.25,ESE,112,2.0,3.1,47,0.00,,,-99.99,FreeWX 2.04,2013-09-29 06:38:00,
2013-09-29 00:43:00,45.7,27.7,25.25,North,-999,0.0,0.0,49,0.00,,,-99.99,FreeWX 2.04,2013-09-29 06:43:00,
2013-09-29 00:48:00,46.0,28.4,25.25,North,-999,0.0,0.0,50,0.00,,,-99.99,FreeWX 2.04,2013-09-29 06:48:00,
2013-09-29 00:53:00,46.0,29.8,25.25,North,-999,0.0,4.0,53,0.00,,,-99.99,FreeWX 2.04,2013-09-29 06:53:00,
2013-09-29 00:58:00,45.3,28.8,25.25,ESE,112,1.0,4.5,52,0.00,,,-99.99,FreeWX 2.04,2013-09-29 06:58:00,
2013-09-29 01:03:00,45.9,30.6,25.25,ESE,112,2.0,3.6,55,0.00,,,-99.99,FreeWX 2.04,2013-09-29 07:03:00,
2013-09-29 01:08:00,45.5,31.1,25.25,ESE,112,1.0,3.6,57,0.00,,,-99.99,FreeWX 2.04,2013-09-29 07:08:00,
2013-09-29 01:13:00,45.7,30.9,25.25,North,-999,0.0,0.0,56,0.00,,,-99.99,FreeWX 2.04,2013-09-29 07:13:00,
2013-09-29 01:18:00,44.8,30.6,25.25,North,-999,0.0,2.7,57,0.00,,,-99.99,FreeWX 2.04,2013-09-29 07:18:00,
2013-09-29 01:23:00,44.2,30.9,25.25,North,-999,0.0,4.5,59,0.00,,,-99.99,FreeWX 2.04,2013-09-29 07:23:00,
2013-09-29 01:28:00,43.3,31.6,25.25,ESE,112,1.0,4.5,63,0.00,,,-99.99,FreeWX 2.04,2013-09-29 07:28:00,
2013-09-29 01:33:00,44.1,32.4,25.25,North,-999,0.0,4.0,63,0.00,,,-99.99,FreeWX 2.04,2013-09-29 07:33:00,
2013-09-29 01:38:00,44.1,31.8,25.25,North,-999,0.0,4.5,62,0.00,,,-99.99,FreeWX 2.04,2013-09-29 07:38:00,
2013-09-29 01:43:00,43.5,31.5,25.25,North,-999,0.0,0.0,62,0.00,,,-99.99,FreeWX 2.04,2013-09-29 07:43:00,
2013-09-29 01:48:00,43.3,32.4,25.25,North,-999,0.0,0.0,65,0.00,,,-99.99,FreeWX 2.04,2013-09-29 07:48:00,
2013-09-29 01:53:00,42.8,31.8,25.25,North,-999,0.0,0.0,65,0.00,,,-99.99,FreeWX 2.04,2013-09-29 07:53:00,
2013-09-29 01:58:00,42.4,31.8,25.25,North,-999,0.0,0.0,66,0.00,,,-99.99,FreeWX 2.04,2013-09-29 07:58:00,
2013-09-29 02:03:00,42.1,31.6,25.25,North,-999,0.0,0.0,66,0.00,,,-99.99,FreeWX 2.04,2013-09-29 08:03:00,
2013-09-29 02:08:00,42.1,32.0,25.25,North,-999,0.0,0.0,67,0.00,,,-99.99,FreeWX 2.04,2013-09-29 08:08:00,
2013-09-29 02:13:00,42.1,32.0,25.25,North,-999,0.0,0.0,67,0.00,,,-99.99,FreeWX 2.04,2013-09-29 08:13:00,
2013-09-29 02:19:00,41.7,31.6,25.25,North,-999,0.0,2.7,67,0.00,,,-99.99,FreeWX 2.04,2013-09-29 08:19:00,
2013-09-29 02:24:00,41.2,31.5,25.25,North,-999,0.0,0.0,68,0.00,,,-99.99,FreeWX 2.04,2013-09-29 08:24:00,
2013-09-29 02:29:00,41.2,31.8,25.25,North,-999,0.0,0.0,69,0.00,,,-99.99,FreeWX 2.04,2013-09-29 08:29:00,
2013-09-29 02:34:00,41.0,31.6,25.25,North,-999,0.0,0.0,69,0.00,,,-99.99,FreeWX 2.04,2013-09-29 08:34:00,
2013-09-29 02:39:00,41.0,32.0,25.25,North,-999,0.0,0.0,70,0.00,,,-99.99,FreeWX 2.04,2013-09-29 08:39:00,
2013-09-29 02:44:00,41.4,32.4,25.25,North,-999,0.0,0.0,70,0.00,,,-99.99,FreeWX 2.04,2013-09-29 08:44:00,
2013-09-29 02:49:00,41.9,32.9,25.25,North,-999,0.0,0.0,70,0.00,,,-99.99,FreeWX 2.04,2013-09-29 08:49:00,
2013-09-29 02:54:00,43.0,33.8,25.25,North,-999,0.0,0.0,70,0.00,,,-99.99,FreeWX 2.04,2013-09-29 08:54:00,
2013-09-29 02:59:00,43.2,33.3,25.25,North,-999,0.0,0.0,68,0.00,,,-99.99,FreeWX 2.04,2013-09-29 08:59:00,
2013-09-29 03:04:00,41.5,31.8,25.25,North,-999,0.0,2.7,68,0.00,,,-99.99,FreeWX 2.04,2013-09-29 09:04:00,
2013-09-29 03:09:00,41.2,32.2,25.25,North,-999,0.0,3.1,70,0.00,,,-99.99,FreeWX 2.04,2013-09-29 09:09:00,
2013-09-29 03:14:00,41.2,32.2,25.25,North,-999,0.0,0.0,70,0.00,,,-99.99,FreeWX 2.04,2013-09-29 09:14:00,
2013-09-29 03:19:00,42.1,33.1,25.25,North,-999,0.0,2.7,70,0.00,,,-99.99,FreeWX 2.04,2013-09-29 09:19:00,
2013-09-29 03:24:00,42.3,33.3,25.25,North,-999,0.0,3.1,70,0.00,,,-99.99,FreeWX 2.04,2013-09-29 09:24:00,
2013-09-29 03:29:00,42.4,33.1,25.25,ESE,112,1.0,4.0,69,0.00,,,-99.99,FreeWX 2.04,2013-09-29 09:29:00,
2013-09-29 03:34:00,43.3,33.8,25.25,ESE,112,2.0,4.0,69,0.00,,,-99.99,FreeWX 2.04,2013-09-29 09:34:00,
2013-09-29 03:39:00,42.4,31.8,25.25,ESE,112,3.0,4.0,66,0.00,,,-99.99,FreeWX 2.04,2013-09-29 09:39:00,
2013-09-29 03:44:00,41.7,31.6,25.25,ESE,112,3.0,4.9,67,0.00,,,-99.99,FreeWX 2.04,2013-09-29 09:44:00,
2013-09-29 03:49:00,42.3,32.5,25.25,East,92,3.0,4.5,68,0.00,,,-99.99,FreeWX 2.04,2013-09-29 09:49:00,
2013-09-29 03:54:00,42.3,32.5,25.22,NE,48,2.0,3.6,68,0.00,,,-99.99,FreeWX 2.04,2013-09-29 09:54:00,
2013-09-29 03:59:00,41.9,32.5,25.22,NNE,33,2.0,4.0,69,0.00,,,-99.99,FreeWX 2.04,2013-09-29 09:59:00,
2013-09-29 04:04:00,42.3,32.9,25.22,NE,34,2.0,3.6,69,0.00,,,-99.99,FreeWX 2.04,2013-09-29 10:04:00,
2013-09-29 04:09:00,42.8,33.3,25.25,NE,34,2.0,3.1,69,0.00,,,-99.99,FreeWX 2.04,2013-09-29 10:09:00,
2013-09-29 04:14:00,43.0,32.7,25.25,NNE,33,1.0,3.6,67,0.00,,,-99.99,FreeWX 2.04,2013-09-29 10:14:00,
2013-09-29 04:19:00,42.3,32.2,25.25,NNE,33,1.0,3.1,67,0.00,,,-99.99,FreeWX 2.04,2013-09-29 10:19:00,
2013-09-29 04:24:00,43.2,32.9,25.25,NNE,31,2.0,4.0,67,0.00,,,-99.99,FreeWX 2.04,2013-09-29 10:24:00,
2013-09-29 04:29:00,43.7,32.0,25.25,NNE,16,3.0,4.9,63,0.00,,,-99.99,FreeWX 2.04,2013-09-29 10:29:00,
2013-09-29 04:34:00,44.1,30.2,25.25,NNW,348,3.0,5.4,58,0.00,,,-99.99,FreeWX 2.04,2013-09-29 10:34:00,
2013-09-29 04:39:00,43.5,30.2,25.25,NNW,341,4.0,5.4,59,0.00,,,-99.99,FreeWX 2.04,2013-09-29 10:39:00,
2013-09-29 04:44:00,43.5,30.2,25.25,North,351,3.0,5.4,59,0.00,,,-99.99,FreeWX 2.04,2013-09-29 10:44:00,
2013-09-29 04:49:00,43.5,29.7,25.25,NNW,335,3.0,5.4,58,0.00,,,-99.99,FreeWX 2.04,2013-09-29 10:49:00,
2013-09-29 04:54:00,43.5,29.3,25.25,NW,320,4.0,5.8,57,0.00,,,-99.99,FreeWX 2.04,2013-09-29 10:54:00,
2013-09-29 04:59:00,43.5,29.3,25.25,NNW,336,3.0,5.4,57,0.00,,,-99.99,FreeWX 2.04,2013-09-29 10:59:00,
2013-09-29 05:04:00,43.7,29.1,25.25,NNW,346,2.0,5.4,56,0.00,,,-99.99,FreeWX 2.04,2013-09-29 11:04:00,
2013-09-29 05:09:00,43.3,28.8,25.25,NNW,337,2.0,3.6,56,0.00,,,-99.99,FreeWX 2.04,2013-09-29 11:09:00,
2013-09-29 05:14:00,42.8,28.6,25.25,North,-999,0.0,2.7,57,0.00,,,-99.99,FreeWX 2.04,2013-09-29 11:14:00,
2013-09-29 05:19:00,42.4,28.2,25.25,North,-999,0.0,2.7,57,0.00,,,-99.99,FreeWX 2.04,2013-09-29 11:19:00,
2013-09-29 05:24:00,42.3,28.9,25.25,North,-999,0.0,0.0,59,0.00,,,-99.99,FreeWX 2.04,2013-09-29 11:24:00,
2013-09-29 05:29:00,41.7,28.9,25.25,North,-999,0.0,0.0,60,0.00,,,-99.99,FreeWX 2.04,2013-09-29 11:29:00,
2013-09-29 05:34:00,41.5,29.1,25.25,North,-999,0.0,2.7,61,0.00,,,-99.99,FreeWX 2.04,2013-09-29 11:34:00,
2013-09-29 05:39:00,41.9,29.5,25.25,North,-999,0.0,3.1,61,0.00,,,-99.99,FreeWX 2.04,2013-09-29 11:39:00,
2013-09-29 05:44:00,41.7,29.3,25.25,North,-999,0.0,2.7,61,0.00,,,-99.99,FreeWX 2.04,2013-09-29 11:44:00,
2013-09-29 05:49:00,41.4,29.3,25.25,North,-999,0.0,0.0,62,0.00,,,-99.99,FreeWX 2.04,2013-09-29 11:49:00,
2013-09-29 05:54:00,40.6,29.1,25.25,North,-999,0.0,0.0,63,0.00,,,-99.99,FreeWX 2.04,2013-09-29 11:54:00,
2013-09-29 05:59:00,40.5,29.3,25.25,North,-999,0.0,0.0,64,0.00,,,-99.99,FreeWX 2.04,2013-09-29 11:59:00,
2013-09-29 06:04:00,39.7,29.3,25.25,North,-999,0.0,0.0,66,0.00,,,-99.99,FreeWX 2.04,2013-09-29 12:04:00,
2013-09-29 06:09:00,40.8,30.4,25.25,North,-999,0.0,3.1,66,0.00,,,-99.99,FreeWX 2.04,2013-09-29 12:09:00,
2013-09-29 06:14:00,41.4,30.6,25.25,North,-999,0.0,2.7,65,0.00,,,-99.99,FreeWX 2.04,2013-09-29 12:14:00,
2013-09-29 06:19:00,39.4,29.3,25.25,North,-999,0.0,3.6,67,0.00,,,-99.99,FreeWX 2.04,2013-09-29 12:19:00,
2013-09-29 06:24:00,38.8,29.8,25.25,North,-999,0.0,2.7,70,0.00,,,-99.99,FreeWX 2.04,2013-09-29 12:24:00,
2013-09-29 06:29:00,38.7,30.0,25.25,North,-999,0.0,2.7,71,0.00,,,-99.99,FreeWX 2.04,2013-09-29 12:29:00,
2013-09-29 06:34:00,39.2,30.6,25.25,North,-999,0.0,2.7,71,0.00,,,-99.99,FreeWX 2.04,2013-09-29 12:34:00,
2013-09-29 06:39:00,39.2,30.6,25.25,North,-999,0.0,0.0,71,0.00,,,-99.99,FreeWX 2.04,2013-09-29 12:39:00,
2013-09-29 06:44:00,38.7,30.4,25.25,North,-999,0.0,4.0,72,0.00,,,-99.99,FreeWX 2.04,2013-09-29 12:44:00,
2013-09-29 06:49:00,37.8,29.5,25.25,NE,55,1.0,3.1,72,0.00,,,-99.99,FreeWX 2.04,2013-09-29 12:49:00,
2013-09-29 06:54:00,37.9,30.4,25.25,North,-999,0.0,0.0,74,0.00,,,-99.99,FreeWX 2.04,2013-09-29 12:54:00,
2013-09-29 06:59:00,37.9,30.4,25.25,North,-999,0.0,3.1,74,0.00,,,-99.99,FreeWX 2.04,2013-09-29 12:59:00,
2013-09-29 07:04:00,38.1,30.9,25.25,North,-999,0.0,2.7,75,0.00,,,-99.99,FreeWX 2.04,2013-09-29 13:04:00,
2013-09-29 07:09:00,38.3,31.1,25.25,North,-999,0.0,2.7,75,0.00,,,-99.99,FreeWX 2.04,2013-09-29 13:09:00,
2013-09-29 07:14:00,38.7,31.1,25.25,North,-999,0.0,2.7,74,0.00,,,-99.99,FreeWX 2.04,2013-09-29 13:14:00,
2013-09-29 07:19:00,38.1,30.6,25.25,North,-999,0.0,2.7,74,0.00,,,-99.99,FreeWX 2.04,2013-09-29 13:19:00,
2013-09-29 07:24:00,38.1,30.6,25.25,North,-999,0.0,3.1,74,0.00,,,-99.99,FreeWX 2.04,2013-09-29 13:24:00,
2013-09-29 07:29:00,38.5,31.3,25.25,North,-999,0.0,0.0,75,0.00,,,-99.99,FreeWX 2.04,2013-09-29 13:29:00,
2013-09-29 07:34:00,38.5,31.3,25.25,North,-999,0.0,0.0,75,0.00,,,-99.99,FreeWX 2.04,2013-09-29 13:34:00,
2013-09-29 07:39:00,39.4,32.2,25.25,ENE,74,1.0,4.0,75,0.00,,,-99.99,FreeWX 2.04,2013-09-29 13:39:00,
2013-09-29 07:44:00,39.4,31.8,25.25,ENE,62,2.0,4.5,74,0.00,,,-99.99,FreeWX 2.04,2013-09-29 13:44:00,
2013-09-29 07:49:00,40.8,32.5,25.25,NNE,17,3.0,4.9,72,0.00,,,-99.99,FreeWX 2.04,2013-09-29 13:49:00,
2013-09-29 07:54:00,43.2,32.5,25.25,NNW,336,4.0,5.4,66,0.00,,,-99.99,FreeWX 2.04,2013-09-29 13:54:00,
2013-09-29 07:59:00,43.0,29.7,25.25,NW,319,4.0,6.9,59,0.00,,,-99.99,FreeWX 2.04,2013-09-29 13:59:00,
2013-09-29 08:04:00,43.7,29.5,25.25,NNW,327,5.0,6.3,57,0.00,,,-99.99,FreeWX 2.04,2013-09-29 14:04:00,
2013-09-29 08:09:00,44.2,29.5,25.25,NNW,343,4.0,5.8,56,0.00,,,-99.99,FreeWX 2.04,2013-09-29 14:09:00,
2013-09-29 08:14:00,45.1,30.0,25.25,North,351,4.0,4.9,55,0.00,,,-99.99,FreeWX 2.04,2013-09-29 14:14:00,
2013-09-29 08:19:00,44.6,28.9,25.25,NNW,348,3.0,5.8,54,0.00,,,-99.99,FreeWX 2.04,2013-09-29 14:19:00,
2013-09-29 08:24:00,45.3,29.7,25.25,North,350,3.0,6.9,54,0.00,,,-99.99,FreeWX 2.04,2013-09-29 14:24:00,
2013-09-29 08:29:00,45.7,29.5,25.25,North,354,3.0,5.4,53,0.00,,,-99.99,FreeWX 2.04,2013-09-29 14:29:00,
2013-09-29 08:34:00,46.4,29.7,25.25,North,358,2.0,4.5,52,0.00,,,-99.99,FreeWX 2.04,2013-09-29 14:34:00,
2013-09-29 08:39:00,47.5,29.8,25.25,North,2,1.0,4.0,50,0.00,,,-99.99,FreeWX 2.04,2013-09-29 14:39:00,
2013-09-29 08:44:00,47.5,28.8,25.25,North,9,1.0,4.5,48,0.00,,,-99.99,FreeWX 2.04,2013-09-29 14:44:00,
2013-09-29 08:49:00,47.7,28.9,25.25,NNE,21,2.0,4.0,48,0.00,,,-99.99,FreeWX 2.04,2013-09-29 14:49:00,
2013-09-29 08:54:00,48.6,29.8,25.25,NNE,21,2.0,5.4,48,0.00,,,-99.99,FreeWX 2.04,2013-09-29 14:54:00,
2013-09-29 08:59:00,48.0,28.8,25.25,NNW,335,3.0,6.7,47,0.00,,,-99.99,FreeWX 2.04,2013-09-29 14:59:00,
2013-09-29 09:04:00,48.4,29.1,25.25,NW,324,3.0,5.4,47,0.00,,,-99.99,FreeWX 2.04,2013-09-29 15:04:00,
2013-09-29 09:09:00,48.6,29.3,25.25,NNW,347,3.0,5.4,47,0.00,,,-99.99,FreeWX 2.04,2013-09-29 15:09:00,
2013-09-29 09:14:00,48.4,28.6,25.25,NNW,338,4.0,5.4,46,0.00,,,-99.99,FreeWX 2.04,2013-09-29 15:14:00,
2013-09-29 09:19:00,49.3,29.3,25.25,NNW,332,3.0,5.8,46,0.00,,,-99.99,FreeWX 2.04,2013-09-29 15:19:00,
2013-09-29 09:24:00,49.1,28.2,25.28,NW,321,3.0,6.3,44,0.00,,,-99.99,FreeWX 2.04,2013-09-29 15:24:00,
2013-09-29 09:29:00,49.1,27.5,25.28,NW,307,3.0,5.8,43,0.00,,,-99.99,FreeWX 2.04,2013-09-29 15:29:00,
2013-09-29 09:34:00,49.6,28.6,25.28,West,280,2.0,5.4,44,0.00,,,-99.99,FreeWX 2.04,2013-09-29 15:34:00,
2013-09-29 09:39:00,50.5,27.7,25.28,West,269,2.0,4.9,41,0.00,,,-99.99,FreeWX 2.04,2013-09-29 15:39:00,
2013-09-29 09:44:00,50.9,26.8,25.28,NNW,327,2.0,6.7,39,0.00,,,-99.99,FreeWX 2.04,2013-09-29 15:44:00,
2013-09-29 09:50:00,51.4,26.6,25.25,NNE,12,3.0,6.9,38,0.00,,,-99.99,FreeWX 2.04,2013-09-29 15:50:00,
2013-09-29 09:55:00,51.3,25.9,25.25,NNE,18,4.0,7.8,37,0.00,,,-99.99,FreeWX 2.04,2013-09-29 15:55:00,
2013-09-29 10:00:00,52.0,26.6,25.25,North,9,4.0,5.8,37,0.00,,,-99.99,FreeWX 2.04,2013-09-29 16:00:00,
2013-09-29 10:05:00,52.5,27.0,25.25,North,349,2.0,5.4,37,0.00,,,-99.99,FreeWX 2.04,2013-09-29 16:05:00,
2013-09-29 10:10:00,53.8,27.5,25.25,North,358,2.0,3.6,36,0.00,,,-99.99,FreeWX 2.04,2013-09-29 16:10:00,
2013-09-29 10:15:00,54.1,27.1,25.25,NE,42,3.0,5.8,35,0.00,,,-99.99,FreeWX 2.04,2013-09-29 16:15:00,
2013-09-29 10:20:00,53.8,25.3,25.25,NE,50,3.0,5.8,33,0.00,,,-99.99,FreeWX 2.04,2013-09-29 16:20:00,
2013-09-29 10:25:00,53.8,25.3,25.25,NE,38,3.0,5.8,33,0.00,,,-99.99,FreeWX 2.04,2013-09-29 16:25:00,
2013-09-29 10:30:00,54.7,27.0,25.25,NE,38,3.0,6.9,34,0.00,,,-99.99,FreeWX 2.04,2013-09-29 16:30:00,
2013-09-29 10:35:00,55.2,25.9,25.25,NNE,32,3.0,6.3,32,0.00,,,-99.99,FreeWX 2.04,2013-09-29 16:35:00,
2013-09-29 10:40:00,55.9,25.7,25.25,NNE,32,3.0,9.6,31,0.00,,,-99.99,FreeWX 2.04,2013-09-29 16:40:00,
2013-09-29 10:45:00,56.3,23.5,25.25,NNE,21,5.0,11.0,28,0.00,,,-99.99,FreeWX 2.04,2013-09-29 16:45:00,
2013-09-29 10:50:00,56.7,23.9,25.22,North,354,6.0,8.3,28,0.00,,,-99.99,FreeWX 2.04,2013-09-29 16:50:00,
2013-09-29 10:55:00,57.9,25.0,25.22,North,351,4.0,6.9,28,0.00,,,-99.99,FreeWX 2.04,2013-09-29 16:55:00,
2013-09-29 11:00:00,58.1,23.4,25.22,NNE,30,4.0,8.7,26,0.00,,,-99.99,FreeWX 2.04,2013-09-29 17:00:00,
2013-09-29 11:05:00,59.2,23.4,25.22,NE,44,4.0,6.3,25,0.00,,,-99.99,FreeWX 2.04,2013-09-29 17:05:00,
2013-09-29 11:10:00,58.8,23.0,25.22,NNE,12,3.0,5.8,25,0.00,,,-99.99,FreeWX 2.04,2013-09-29 17:10:00,
2013-09-29 11:15:00,59.2,23.4,25.22,NNW,331,4.0,5.8,25,0.00,,,-99.99,FreeWX 2.04,2013-09-29 17:15:00,
2013-09-29 11:20:00,58.8,23.0,25.22,NW,311,3.0,7.4,25,0.00,,,-99.99,FreeWX 2.04,2013-09-29 17:20:00,
2013-09-29 11:25:00,59.7,24.8,25.22,WNW,284,3.0,6.3,26,0.00,,,-99.99,FreeWX 2.04,2013-09-29 17:25:00,
2013-09-29 11:30:00,59.5,23.7,25.22,West,273,4.0,8.7,25,0.00,,,-99.99,FreeWX 2.04,2013-09-29 17:30:00,
2013-09-29 11:35:00,60.1,24.1,25.22,West,267,4.0,6.7,25,0.00,,,-99.99,FreeWX 2.04,2013-09-29 17:35:00,
2013-09-29 11:40:00,59.7,23.9,25.22,WSW,247,4.0,7.4,25,0.00,,,-99.99,FreeWX 2.04,2013-09-29 17:40:00,
2013-09-29 11:45:00,59.7,23.9,25.22,WSW,237,4.0,6.9,25,0.00,,,-99.99,FreeWX 2.04,2013-09-29 17:45:00,
2013-09-29 11:50:00,61.0,23.9,25.22,WSW,248,2.0,3.6,24,0.00,,,-99.99,FreeWX 2.04,2013-09-29 17:50:00,
2013-09-29 11:55:00,60.6,23.7,25.22,WSW,241,2.0,8.3,24,0.00,,,-99.99,FreeWX 2.04,2013-09-29 17:55:00,
2013-09-29 12:00:00,60.6,23.7,25.22,SW,214,5.0,7.8,24,0.00,,,-99.99,FreeWX 2.04,2013-09-29 18:00:00,
2013-09-29 12:05:00,61.0,23.9,25.19,SSW,212,5.0,10.5,24,0.00,,,-99.99,FreeWX 2.04,2013-09-29 18:05:00,
2013-09-29 12:10:00,61.5,24.4,25.19,SW,227,4.0,8.7,24,0.00,,,-99.99,FreeWX 2.04,2013-09-29 18:10:00,
2013-09-29 12:15:00,62.1,24.8,25.19,SSW,198,5.0,8.3,24,0.00,,,-99.99,FreeWX 2.04,2013-09-29 18:15:00,
2013-09-29 12:20:00,62.1,24.8,25.19,SSE,153,5.0,8.7,24,0.00,,,-99.99,FreeWX 2.04,2013-09-29 18:20:00,
2013-09-29 12:25:00,62.2,21.7,25.19,SE,146,5.0,8.3,21,0.00,,,-99.99,FreeWX 2.04,2013-09-29 18:25:00,
2013-09-29 12:30:00,62.8,18.7,25.19,SSE,161,4.0,7.4,18,0.00,,,-99.99,FreeWX 2.04,2013-09-29 18:30:00,
2013-09-29 12:35:00,63.1,22.6,25.19,South,171,4.0,8.7,21,0.00,,,-99.99,FreeWX 2.04,2013-09-29 18:35:00,
2013-09-29 12:40:00,63.5,22.8,25.19,SSE,168,5.0,8.3,21,0.00,,,-99.99,FreeWX 2.04,2013-09-29 18:40:00,
2013-09-29 12:45:00,63.0,16.2,25.19,South,185,5.0,8.3,16,0.00,,,-99.99,FreeWX 2.04,2013-09-29 18:45:00,
2013-09-29 12:50:00,63.9,19.6,25.19,SSW,202,4.0,7.4,18,0.00,,,-99.99,FreeWX 2.04,2013-09-29 18:50:00,
2013-09-29 12:55:00,64.2,15.6,25.19,South,178,4.0,6.9,15,0.00,,,-99.99,FreeWX 2.04,2013-09-29 18:55:00,
2013-09-29 13:00:00,64.2,15.6,25.19,SE,142,4.0,7.4,15,0.00,,,-99.99,FreeWX 2.04,2013-09-29 19:00:00,
2013-09-29 13:05:00,65.1,16.3,25.16,SE,131,4.0,7.8,15,0.00,,,-99.99,FreeWX 2.04,2013-09-29 19:05:00,
2013-09-29 13:10:00,65.1,13.1,25.16,SE,145,4.0,7.8,13,0.00,,,-99.99,FreeWX 2.04,2013-09-29 19:10:00,
2013-09-29 13:15:00,65.5,16.7,25.16,SSE,154,3.0,6.7,15,0.00,,,-99.99,FreeWX 2.04,2013-09-29 19:15:00,
2013-09-29 13:20:00,66.0,12.0,25.16,SE,143,4.0,7.8,12,0.00,,,-99.99,FreeWX 2.04,2013-09-29 19:20:00,
2013-09-29 13:25:00,65.5,11.5,25.16,SE,136,4.0,6.9,12,0.00,,,-99.99,FreeWX 2.04,2013-09-29 19:25:00,
2013-09-29 13:30:00,66.2,12.0,25.16,SE,141,4.0,8.7,12,0.00,,,-99.99,FreeWX 2.04,2013-09-29 19:30:00,
2013-09-29 13:35:00,66.4,12.2,25.16,SSE,148,4.0,9.2,12,0.00,,,-99.99,FreeWX 2.04,2013-09-29 19:35:00,
2013-09-29 13:40:00,66.7,12.6,25.16,SSE,151,5.0,11.0,12,0.00,,,-99.99,FreeWX 2.04,2013-09-29 19:40:00,
2013-09-29 13:45:00,66.9,-99.9,25.16,SSE,159,5.0,8.7,-999,0.00,,,-99.99,FreeWX 2.04,2013-09-29 19:45:00,
2013-09-29 13:50:00,66.9,-99.9,25.16,South,171,7.0,12.5,-999,0.00,,,-99.99,FreeWX 2.04,2013-09-29 19:50:00,
2013-09-29 13:55:00,67.1,-99.9,25.16,South,180,8.0,12.1,-999,0.00,,,-99.99,FreeWX 2.04,2013-09-29 19:55:00,
2013-09-29 14:00:00,66.7,-99.9,25.16,South,181,8.0,13.0,-999,0.00,,,-99.99,FreeWX 2.04,2013-09-29 20:00:00,
2013-09-29 14:05:00,66.6,-99.9,25.16,South,169,8.0,13.9,-999,0.00,,,-99.99,FreeWX 2.04,2013-09-29 20:05:00,
2013-09-29 14:10:00,66.7,-99.9,25.16,South,172,8.0,12.1,-999,0.00,,,-99.99,FreeWX 2.04,2013-09-29 20:10:00,
2013-09-29 14:15:00,66.7,-99.9,25.16,South,184,9.0,12.5,-999,0.00,,,-99.99,FreeWX 2.04,2013-09-29 20:15:00,
2013-09-29 14:20:00,66.4,-99.9,25.13,SSW,196,9.0,13.0,-999,0.00,,,-99.99,FreeWX 2.04,2013-09-29 20:20:00,
2013-09-29 14:25:00,66.0,-99.9,25.13,SSW,200,9.0,12.5,-999,0.00,,,-99.99,FreeWX 2.04,2013-09-29 20:25:00,
2013-09-29 14:30:00,66.0,-99.9,25.13,SSW,202,9.0,12.1,-999,0.00,,,-99.99,FreeWX 2.04,2013-09-29 20:30:00,
2013-09-29 14:35:00,65.7,-99.9,25.13,SSW,195,8.0,11.6,-999,0.00,,,-99.99,FreeWX 2.04,2013-09-29 20:35:00,
2013-09-29 14:40:00,66.4,-99.9,25.13,South,186,8.0,11.6,-999,0.00,,,-99.99,FreeWX 2.04,2013-09-29 20:40:00,
2013-09-29 14:45:00,66.9,-99.9,25.13,South,174,6.0,9.2,-999,0.00,,,-99.99,FreeWX 2.04,2013-09-29 20:45:00,
2013-09-29 14:50:00,66.9,-99.9,25.13,SSE,155,6.0,7.8,-999,0.00,,,-99.99,FreeWX 2.04,2013-09-29 20:50:00,
2013-09-29 14:55:00,66.9,-99.9,25.13,SSE,158,6.0,11.0,-999,0.00,,,-99.99,FreeWX 2.04,2013-09-29 20:55:00,
2013-09-29 15:00:00,67.1,-99.9,25.13,South,179,6.0,9.2,-999,0.00,,,-99.99,FreeWX 2.04,2013-09-29 21:00:00,
2013-09-29 15:05:00,67.8,-99.9,25.13,South,177,6.0,8.7,-999,0.00,,,-99.99,FreeWX 2.04,2013-09-29 21:05:00,
2013-09-29 15:10:00,67.5,-99.9,25.13,SSE,162,5.0,7.8,-999,0.00,,,-99.99,FreeWX 2.04,2013-09-29 21:10:00,
2013-09-29 15:15:00,67.3,-99.9,25.13,SSE,165,5.0,8.7,-999,0.00,,,-99.99,FreeWX 2.04,2013-09-29 21:15:00,
2013-09-29 15:20:00,67.3,-99.9,25.13,SSE,168,4.0,7.8,-999,0.00,,,-99.99,FreeWX 2.04,2013-09-29 21:20:00,
2013-09-29 15:25:00,68.0,-99.9,25.13,South,184,4.0,9.2,-999,0.00,,,-99.99,FreeWX 2.04,2013-09-29 21:25:00,
2013-09-29 15:30:00,67.6,-99.9,25.13,SSW,213,6.0,11.2,-999,0.00,,,-99.99,FreeWX 2.04,2013-09-29 21:30:00,
2013-09-29 15:36:00,68.5,-99.9,25.13,SSW,213,6.0,10.5,-999,0.00,,,-99.99,FreeWX 2.04,2013-09-29 21:36:00,
2013-09-29 15:41:00,68.2,-99.9,25.13,SSW,209,7.0,12.1,-999,0.00,,,-99.99,FreeWX 2.04,2013-09-29 21:41:00,
2013-09-29 15:46:00,68.0,-99.9,25.13,SW,219,6.0,10.1,-999,0.00,,,-99.99,FreeWX 2.04,2013-09-29 21:46:00,
2013-09-29 15:51:00,67.8,-99.9,25.10,SW,220,4.0,8.3,-999,0.00,,,-99.99,FreeWX 2.04,2013-09-29 21:51:00,
2013-09-29 15:56:00,68.4,-99.9,25.10,SW,214,5.0,10.1,-999,0.00,,,-99.99,FreeWX 2.04,2013-09-29 21:56:00,
2013-09-29 16:01:00,68.7,-99.9,25.10,SSW,198,4.0,7.4,-999,0.00,,,-99.99,FreeWX 2.04,2013-09-29 22:01:00,
2013-09-29 16:06:00,68.4,-99.9,25.10,SSW,192,4.0,6.9,-999,0.00,,,-99.99,FreeWX 2.04,2013-09-29 22:06:00,
2013-09-29 16:11:00,68.4,-99.9,25.10,SSW,207,5.0,9.6,-999,0.00,,,-99.99,FreeWX 2.04,2013-09-29 22:11:00,
2013-09-29 16:16:00,68.4,-99.9,25.10,SW,225,6.0,8.3,-999,0.00,,,-99.99,FreeWX 2.04,2013-09-29 22:16:00,
2013-09-29 16:21:00,68.0,-99.9,25.10,SW,230,4.0,6.3,-999,0.00,,,-99.99,FreeWX 2.04,2013-09-29 22:21:00,
2013-09-29 16:26:00,68.4,-99.9,25.10,SW,232,3.0,4.9,-999,0.00,,,-99.99,FreeWX 2.04,2013-09-29 22:26:00,
2013-09-29 16:31:00,68.5,-99.9,25.10,SW,232,2.0,4.0,-999,0.00,,,-99.99,FreeWX 2.04,2013-09-29 22:31:00,
2013-09-29 16:36:00,68.5,-99.9,25.10,SW,233,2.0,5.8,-999,0.00,,,-99.99,FreeWX 2.04,2013-09-29 22:36:00,
2013-09-29 16:41:00,68.5,-99.9,25.10,SW,234,2.0,5.8,-999,0.00,,,-99.99,FreeWX 2.04,2013-09-29 22:41:00,
2013-09-29 16:46:00,68.9,-99.9,25.10,SW,234,2.0,4.0,-999,0.00,,,-99.99,FreeWX 2.04,2013-09-29 22:46:00,
2013-09-29 16:51:00,69.3,-99.9,25.10,SW,234,2.0,6.9,-999,0.00,,,-99.99,FreeWX 2.04,2013-09-29 22:51:00,
2013-09-29 16:56:00,68.5,-99.9,25.10,SW,232,3.0,7.4,-999,0.00,,,-99.99,FreeWX 2.04,2013-09-29 22:56:00,
2013-09-29 17:01:00,68.4,-99.9,25.10,SW,234,5.0,9.6,-999,0.00,,,-99.99,FreeWX 2.04,2013-09-29 23:01:00,
2013-09-29 17:06:00,68.5,-99.9,25.10,SW,235,4.0,6.3,-999,0.00,,,-99.99,FreeWX 2.04,2013-09-29 23:06:00,
2013-09-29 17:11:00,68.9,-99.9,25.10,SW,234,2.0,6.3,-999,0.00,,,-99.99,FreeWX 2.04,2013-09-29 23:11:00,
2013-09-29 17:16:00,68.7,-99.9,25.10,SW,233,1.0,6.7,-999,0.00,,,-99.99,FreeWX 2.04,2013-09-29 23:16:00,
2013-09-29 17:21:00,68.7,-99.9,25.10,SW,214,2.0,7.4,-999,0.00,,,-99.99,FreeWX 2.04,2013-09-29 23:21:00,
2013-09-29 17:26:00,68.7,-99.9,25.10,SSW,209,4.0,7.4,-999,0.00,,,-99.99,FreeWX 2.04,2013-09-29 23:26:00,
2013-09-29 17:31:00,68.9,-99.9,25.10,SSW,196,5.0,10.1,-999,0.00,,,-99.99,FreeWX 2.04,2013-09-29 23:31:00,
2013-09-29 17:36:00,68.5,-99.9,25.10,SSW,197,5.0,7.4,-999,0.00,,,-99.99,FreeWX 2.04,2013-09-29 23:36:00,
2013-09-29 17:41:00,68.4,-99.9,25.10,SW,227,5.0,7.4,-999,0.00,,,-99.99,FreeWX 2.04,2013-09-29 23:41:00,
2013-09-29 17:46:00,68.5,-99.9,25.10,SW,218,5.0,9.2,-999,0.00,,,-99.99,FreeWX 2.04,2013-09-29 23:46:00,
2013-09-29 17:51:00,68.0,-99.9,25.10,South,186,6.0,9.2,-999,0.00,,,-99.99,FreeWX 2.04,2013-09-29 23:51:00,
2013-09-29 17:56:00,67.5,-99.9,25.10,SSE,163,6.0,8.7,-999,0.00,,,-99.99,FreeWX 2.04,2013-09-29 23:56:00,
2013-09-29 18:01:00,67.6,-99.9,25.10,SE,143,6.0,7.4,-999,0.00,,,-99.99,FreeWX 2.04,2013-09-30 00:01:00,
2013-09-29 18:06:00,67.6,-99.9,25.10,SE,132,4.0,6.9,-999,0.00,,,-99.99,FreeWX 2.04,2013-09-30 00:06:00,
2013-09-29 18:11:00,67.8,-99.9,25.10,SE,128,4.0,6.3,-999,0.00,,,-99.99,FreeWX 2.04,2013-09-30 00:11:00,
2013-09-29 18:16:00,67.5,-99.9,25.10,ESE,116,3.0,5.8,-999,0.00,,,-99.99,FreeWX 2.04,2013-09-30 00:16:00,
2013-09-29 18:21:00,66.7,12.6,25.10,ESE,108,3.0,4.5,12,0.00,,,-99.99,FreeWX 2.04,2013-09-30 00:21:00,
2013-09-29 18:26:00,66.2,12.0,25.10,ESE,108,2.0,4.0,12,0.00,,,-99.99,FreeWX 2.04,2013-09-30 00:26:00,
2013-09-29 18:31:00,65.8,11.8,25.10,ESE,107,1.0,3.1,12,0.00,,,-99.99,FreeWX 2.04,2013-09-30 00:31:00,
2013-09-29 18:36:00,65.3,16.5,25.10,ESE,109,1.0,4.0,15,0.00,,,-99.99,FreeWX 2.04,2013-09-30 00:36:00,
2013-09-29 18:41:00,64.6,20.1,25.10,ESE,110,1.0,3.6,18,0.00,,,-99.99,FreeWX 2.04,2013-09-30 00:41:00,
2013-09-29 18:46:00,63.9,19.6,25.10,ESE,110,1.0,3.6,18,0.00,,,-99.99,FreeWX 2.04,2013-09-30 00:46:00,
2013-09-29 18:51:00,63.3,25.0,25.10,ESE,109,1.0,3.6,23,0.00,,,-99.99,FreeWX 2.04,2013-09-30 00:51:00,
2013-09-29 18:56:00,62.8,25.5,25.10,ESE,108,2.0,4.0,24,0.00,,,-99.99,FreeWX 2.04,2013-09-30 00:56:00,
2013-09-29 19:01:00,62.1,24.8,25.10,ESE,109,1.0,3.1,24,0.00,,,-99.99,FreeWX 2.04,2013-09-30 01:01:00,
2013-09-29 19:06:00,61.9,24.6,25.07,North,-999,0.0,2.7,24,0.00,,,-99.99,FreeWX 2.04,2013-09-30 01:06:00,
2013-09-29 19:11:00,61.9,24.6,25.07,ESE,109,1.0,4.0,24,0.00,,,-99.99,FreeWX 2.04,2013-09-30 01:11:00,
2013-09-29 19:16:00,61.7,24.6,25.07,ESE,109,1.0,4.5,24,0.00,,,-99.99,FreeWX 2.04,2013-09-30 01:16:00,
2013-09-29 19:21:00,61.5,25.3,25.07,North,-999,0.0,0.0,25,0.00,,,-99.99,FreeWX 2.04,2013-09-30 01:21:00,
2013-09-29 19:26:00,61.2,25.0,25.07,North,-999,0.0,0.0,25,0.00,,,-99.99,FreeWX 2.04,2013-09-30 01:26:00,
2013-09-29 19:31:00,61.0,25.0,25.07,North,-999,0.0,2.7,25,0.00,,,-99.99,FreeWX 2.04,2013-09-30 01:31:00,
2013-09-29 19:36:00,60.6,24.6,25.07,North,-999,0.0,2.7,25,0.00,,,-99.99,FreeWX 2.04,2013-09-30 01:36:00,
2013-09-29 19:41:00,60.4,24.4,25.07,North,-999,0.0,0.0,25,0.00,,,-99.99,FreeWX 2.04,2013-09-30 01:41:00,
2013-09-29 19:46:00,60.3,24.3,25.07,North,-999,0.0,0.0,25,0.00,,,-99.99,FreeWX 2.04,2013-09-30 01:46:00,
2013-09-29 19:51:00,60.1,24.1,25.07,North,-999,0.0,0.0,25,0.00,,,-99.99,FreeWX 2.04,2013-09-30 01:51:00,
2013-09-29 19:56:00,59.7,24.8,25.07,North,-999,0.0,2.7,26,0.00,,,-99.99,FreeWX 2.04,2013-09-30 01:56:00,
2013-09-29 20:01:00,59.5,24.6,25.07,North,-999,0.0,0.0,26,0.00,,,-99.99,FreeWX 2.04,2013-09-30 02:01:00,
2013-09-29 20:06:00,59.7,23.9,25.07,North,-999,0.0,2.7,25,0.00,,,-99.99,FreeWX 2.04,2013-09-30 02:06:00,
2013-09-29 20:11:00,59.9,24.1,25.07,North,-999,0.0,2.7,25,0.00,,,-99.99,FreeWX 2.04,2013-09-30 02:11:00,
2013-09-29 20:16:00,59.9,24.1,25.07,North,-999,0.0,0.0,25,0.00,,,-99.99,FreeWX 2.04,2013-09-30 02:16:00,
2013-09-29 20:21:00,59.7,23.9,25.07,North,-999,0.0,0.0,25,0.00,,,-99.99,FreeWX 2.04,2013-09-30 02:21:00,
2013-09-29 20:26:00,59.5,23.7,25.07,North,-999,0.0,0.0,25,0.00,,,-99.99,FreeWX 2.04,2013-09-30 02:26:00,
2013-09-29 20:31:00,59.4,23.5,25.07,North,-999,0.0,0.0,25,0.00,,,-99.99,FreeWX 2.04,2013-09-30 02:31:00,
2013-09-29 20:36:00,59.5,23.7,25.07,North,-999,0.0,0.0,25,0.00,,,-99.99,FreeWX 2.04,2013-09-30 02:36:00,
2013-09-29 20:41:00,59.4,23.5,25.07,North,-999,0.0,0.0,25,0.00,,,-99.99,FreeWX 2.04,2013-09-30 02:41:00,
2013-09-29 20:46:00,59.4,23.5,25.07,North,-999,0.0,2.7,25,0.00,,,-99.99,FreeWX 2.04,2013-09-30 02:46:00,
2013-09-29 20:51:00,59.2,23.4,25.07,North,-999,0.0,2.7,25,0.00,,,-99.99,FreeWX 2.04,2013-09-30 02:51:00,
2013-09-29 20:56:00,59.0,23.2,25.07,North,-999,0.0,3.1,25,0.00,,,-99.99,FreeWX 2.04,2013-09-30 02:56:00,
2013-09-29 21:01:00,58.8,23.0,25.07,North,-999,0.0,0.0,25,0.00,,,-99.99,FreeWX 2.04,2013-09-30 03:01:00,
2013-09-29 21:06:00,59.0,23.2,25.10,North,-999,0.0,3.6,25,0.00,,,-99.99,FreeWX 2.04,2013-09-30 03:06:00,
2013-09-29 21:11:00,59.2,23.4,25.10,North,-999,0.0,4.0,25,0.00,,,-99.99,FreeWX 2.04,2013-09-30 03:11:00,
2013-09-29 21:16:00,59.0,22.3,25.10,ESE,110,1.0,4.0,24,0.00,,,-99.99,FreeWX 2.04,2013-09-30 03:16:00,
2013-09-29 21:22:00,58.8,22.1,25.07,North,-999,0.0,3.1,24,0.00,,,-99.99,FreeWX 2.04,2013-09-30 03:22:00,
2013-09-29 21:27:00,58.5,21.7,25.07,North,-999,0.0,3.6,24,0.00,,,-99.99,FreeWX 2.04,2013-09-30 03:27:00,
2013-09-29 21:32:00,59.4,20.5,25.07,ESE,110,1.0,3.6,22,0.00,,,-99.99,FreeWX 2.04,2013-09-30 03:32:00,
2013-09-29 21:37:00,59.5,17.2,25.10,ESE,113,2.0,6.3,19,0.00,,,-99.99,FreeWX 2.04,2013-09-30 03:37:00,
2013-09-29 21:42:00,59.4,17.1,25.10,ESE,116,2.0,5.4,19,0.00,,,-99.99,FreeWX 2.04,2013-09-30 03:42:00,
2013-09-29 21:47:00,59.0,20.3,25.10,ESE,116,2.0,4.5,22,0.00,,,-99.99,FreeWX 2.04,2013-09-30 03:47:00,
2013-09-29 21:52:00,59.0,20.3,25.10,ESE,118,2.0,7.4,22,0.00,,,-99.99,FreeWX 2.04,2013-09-30 03:52:00,
2013-09-29 21:57:00,58.6,19.9,25.10,ESE,123,2.0,4.0,22,0.00,,,-99.99,FreeWX 2.04,2013-09-30 03:57:00,
2013-09-29 22:02:00,58.6,19.9,25.10,SE,124,1.0,4.5,22,0.00,,,-99.99,FreeWX 2.04,2013-09-30 04:02:00,
2013-09-29 22:07:00,58.3,19.6,25.10,North,-999,0.0,0.0,22,0.00,,,-99.99,FreeWX 2.04,2013-09-30 04:07:00,
2013-09-29 22:12:00,58.1,19.4,25.10,North,-999,0.0,0.0,22,0.00,,,-99.99,FreeWX 2.04,2013-09-30 04:12:00,
2013-09-29 22:17:00,57.9,19.4,25.10,North,-999,0.0,0.0,22,0.00,,,-99.99,FreeWX 2.04,2013-09-30 04:17:00,
2013-09-29 22:22:00,58.5,16.3,25.10,North,-999,0.0,3.1,19,0.00,,,-99.99,FreeWX 2.04,2013-09-30 04:22:00,
2013-09-29 22:27:00,58.5,19.8,25.10,North,-999,0.0,3.1,22,0.00,,,-99.99,FreeWX 2.04,2013-09-30 04:27:00,
2013-09-29 22:32:00,58.6,16.5,25.10,North,-999,0.0,3.6,19,0.00,,,-99.99,FreeWX 2.04,2013-09-30 04:32:00,
2013-09-29 22:37:00,58.6,19.9,25.10,North,-999,0.0,3.6,22,0.00,,,-99.99,FreeWX 2.04,2013-09-30 04:37:00,
2013-09-29 22:42:00,58.8,16.7,25.10,SE,127,2.0,6.3,19,0.00,,,-99.99,FreeWX 2.04,2013-09-30 04:42:00,
2013-09-29 22:47:00,58.6,19.9,25.10,SE,127,3.0,5.4,22,0.00,,,-99.99,FreeWX 2.04,2013-09-30 04:47:00,
2013-09-29 22:52:00,58.3,21.7,25.10,ESE,123,3.0,5.8,24,0.00,,,-99.99,FreeWX 2.04,2013-09-30 04:52:00,
2013-09-29 22:57:00,58.1,21.6,25.10,ESE,123,1.0,3.6,24,0.00,,,-99.99,FreeWX 2.04,2013-09-30 04:57:00,
2013-09-29 23:02:00,58.3,21.7,25.10,ESE,123,1.0,4.0,24,0.00,,,-99.99,FreeWX 2.04,2013-09-30 05:02:00,
2013-09-29 23:07:00,58.3,21.7,25.10,SE,128,2.0,5.4,24,0.00,,,-99.99,FreeWX 2.04,2013-09-30 05:07:00,
2013-09-29 23:12:00,58.1,21.6,25.10,SE,141,3.0,5.4,24,0.00,,,-99.99,FreeWX 2.04,2013-09-30 05:12:00,
2013-09-29 23:17:00,56.7,21.2,25.10,SE,137,2.0,5.4,25,0.00,,,-99.99,FreeWX 2.04,2013-09-30 05:17:00,
2013-09-29 23:22:00,57.7,22.1,25.10,ESE,123,3.0,4.9,25,0.00,,,-99.99,FreeWX 2.04,2013-09-30 05:22:00,
2013-09-29 23:27:00,57.7,22.1,25.10,ESE,120,3.0,4.5,25,0.00,,,-99.99,FreeWX 2.04,2013-09-30 05:27:00,
2013-09-29 23:32:00,58.1,21.6,25.10,ESE,120,2.0,3.1,24,0.00,,,-99.99,FreeWX 2.04,2013-09-30 05:32:00,
2013-09-29 23:37:00,58.1,21.6,25.10,North,-999,0.0,2.7,24,0.00,,,-99.99,FreeWX 2.04,2013-09-30 05:37:00,
2013-09-29 23:42:00,57.2,21.7,25.10,North,-999,0.0,5.4,25,0.00,,,-99.99,FreeWX 2.04,2013-09-30 05:42:00,
2013-09-29 23:47:00,56.8,22.3,25.10,NW,308,1.0,4.5,26,0.00,,,-99.99,FreeWX 2.04,2013-09-30 05:47:00,
2013-09-29 23:52:00,56.3,21.9,25.10,NW,305,1.0,4.5,26,0.00,,,-99.99,FreeWX 2.04,2013-09-30 05:52:00,
2013-09-29 23:57:00,57.7,22.1,25.10,NW,321,2.0,5.4,25,0.00,,,-99.99,FreeWX 2.04,2013-09-30 05:57:00,